JCSAT-16

Last updated on Sun Jun 21 2026 00:03:07 GMT+0000 (Coordinated Universal Time)

1 41729U 16050A 26171.27790293 -.00000256 00000+0 00000+0 0 9993 2 41729 0.0178 6.6421 0001003 90.2667 55.5715 1.00271605 36104
UTC large
Height (km)
Speed (km/s)
/
Latitude / Longitude
Inclination (degrees)
Orbital Period (minutes)
Azimuth
Elevation
Range (km)
Doppler Factor

Next 0 passes for location: London (51.5072 / 0.1276)

No passes found over London.
JCSAT-16